Time,TemperatureF,DewpointF,PressureIn,WindDirection,WindDirectionDegrees,WindSpeedMPH,WindSpeedGustMPH,Humidity,HourlyPrecipIn,Conditions,Clouds,dailyrainin,SoftwareType,DateUTC
2013-10-13 00:02:00,54.4,46.3,30.20,SSE,161,2.0,14.0,74,0.00,,,0.00,Wunderground v.1.15,2013-10-13 04:02:00,
2013-10-13 00:06:00,53.7,46.3,30.20,SSE,154,1.0,14.0,76,0.00,,,0.00,Wunderground v.1.15,2013-10-13 04:06:00,
2013-10-13 00:10:00,53.9,46.2,30.20,SE,140,2.0,14.0,75,0.00,,,0.00,Wunderground v.1.15,2013-10-13 04:10:00,
2013-10-13 00:12:00,54.1,46.3,30.20,SE,144,3.0,14.0,75,0.00,,,0.00,Wunderground v.1.15,2013-10-13 04:12:00,
2013-10-13 00:18:00,54.6,46.5,30.20,SE,144,3.0,14.0,74,0.00,,,0.00,Wunderground v.1.15,2013-10-13 04:18:00,
2013-10-13 00:24:00,55.5,46.6,30.20,SSW,196,3.0,14.0,72,0.00,,,0.00,Wunderground v.1.15,2013-10-13 04:24:00,
2013-10-13 00:30:00,56.2,46.5,30.20,SSW,196,2.0,2.0,70,0.00,,,0.00,Wunderground v.1.15,2013-10-13 04:30:00,
2013-10-13 00:36:00,55.3,46.1,30.21,SSE,153,1.0,14.0,71,0.00,,,0.00,Wunderground v.1.15,2013-10-13 04:36:00,
2013-10-13 00:38:00,54.8,45.9,30.21,SSE,149,1.0,14.0,72,0.00,,,0.00,Wunderground v.1.15,2013-10-13 04:38:00,
2013-10-13 00:44:00,54.5,46.0,30.21,SSE,152,1.0,14.0,73,0.00,,,0.00,Wunderground v.1.15,2013-10-13 04:44:00,
2013-10-13 00:50:00,54.0,46.3,30.21,SE,140,1.0,14.0,75,0.00,,,0.00,Wunderground v.1.15,2013-10-13 04:50:00,
2013-10-13 00:52:00,54.0,46.3,30.21,SE,142,2.0,14.0,75,0.00,,,0.00,Wunderground v.1.15,2013-10-13 04:52:00,
2013-10-13 00:58:00,54.1,46.3,30.21,SSE,152,2.0,14.0,75,0.00,,,0.00,Wunderground v.1.15,2013-10-13 04:58:00,
2013-10-13 01:04:00,54.5,46.4,30.21,SE,132,3.0,14.0,74,0.00,,,0.00,Wunderground v.1.15,2013-10-13 05:04:00,
2013-10-13 01:10:00,54.8,46.7,30.20,SE,139,4.0,4.0,74,0.00,,,0.00,Wunderground v.1.15,2013-10-13 05:10:00,
2013-10-13 01:16:00,55.2,46.7,30.20,SE,131,4.0,14.0,73,0.00,,,0.00,Wunderground v.1.15,2013-10-13 05:16:00,
2013-10-13 01:22:00,55.7,46.8,30.20,SSE,150,4.0,14.0,72,0.00,,,0.00,Wunderground v.1.15,2013-10-13 05:22:00,
2013-10-13 01:28:00,56.0,47.1,30.20,South,179,4.0,14.0,72,0.00,,,0.00,Wunderground v.1.15,2013-10-13 05:28:00,
2013-10-13 01:34:00,56.3,47.8,30.20,SSE,167,4.0,14.0,73,0.00,,,0.00,Wunderground v.1.15,2013-10-13 05:34:00,
2013-10-13 01:40:00,56.4,48.2,30.20,South,178,4.0,4.0,74,0.00,,,0.00,Wunderground v.1.15,2013-10-13 05:40:00,
2013-10-13 01:46:00,56.6,48.4,30.20,SE,144,4.0,14.0,74,0.00,,,0.00,Wunderground v.1.15,2013-10-13 05:46:00,
2013-10-13 01:52:00,56.9,49.1,30.21,South,187,3.0,14.0,75,0.00,,,0.00,Wunderground v.1.15,2013-10-13 05:52:00,
2013-10-13 01:58:00,57.1,49.2,30.20,SSE,157,3.0,14.0,75,0.00,,,0.00,Wunderground v.1.15,2013-10-13 05:58:00,
2013-10-13 02:04:00,57.3,49.8,30.20,SSE,155,4.0,14.0,76,0.00,,,0.00,Wunderground v.1.15,2013-10-13 06:04:00,
2013-10-13 02:10:00,57.9,50.4,30.20,SE,140,5.0,14.0,76,0.00,,,0.00,Wunderground v.1.15,2013-10-13 06:10:00,
2013-10-13 02:16:00,58.5,51.0,30.20,South,175,6.0,14.0,76,0.00,,,0.00,Wunderground v.1.15,2013-10-13 06:16:00,
2013-10-13 02:22:00,58.8,51.6,30.20,SSE,167,6.0,14.0,77,0.00,,,0.00,Wunderground v.1.15,2013-10-13 06:22:00,
2013-10-13 02:28:00,59.1,51.9,30.20,South,177,6.0,14.0,77,0.00,,,0.00,Wunderground v.1.15,2013-10-13 06:28:00,
2013-10-13 02:34:00,59.0,51.8,30.21,South,181,6.0,14.0,77,0.00,,,0.00,Wunderground v.1.15,2013-10-13 06:34:00,
2013-10-13 02:40:00,59.0,51.8,30.20,South,181,7.0,7.0,77,0.00,,,0.00,Wunderground v.1.15,2013-10-13 06:40:00,
2013-10-13 02:46:00,58.8,51.6,30.20,South,176,7.0,14.0,77,0.00,,,0.00,Wunderground v.1.15,2013-10-13 06:46:00,
2013-10-13 02:52:00,58.6,51.8,30.21,SW,217,6.0,14.0,78,0.00,,,0.00,Wunderground v.1.15,2013-10-13 06:52:00,
2013-10-13 02:58:00,58.5,52.0,30.20,SSE,168,6.0,14.0,79,0.00,,,0.00,Wunderground v.1.15,2013-10-13 06:58:00,
2013-10-13 03:04:00,58.5,52.0,30.21,SE,144,6.0,14.0,79,0.00,,,0.00,Wunderground v.1.15,2013-10-13 07:04:00,
2013-10-13 03:10:00,58.4,52.3,30.21,SSE,148,6.0,14.0,80,0.00,,,0.00,Wunderground v.1.15,2013-10-13 07:10:00,
2013-10-13 03:16:00,58.3,52.2,30.21,SSE,153,6.0,14.0,80,0.00,,,0.00,Wunderground v.1.15,2013-10-13 07:16:00,
2013-10-13 03:22:00,58.2,52.1,30.21,SE,136,5.0,7.0,80,0.00,,,0.00,Wunderground v.1.15,2013-10-13 07:22:00,
2013-10-13 03:28:00,58.1,52.3,30.21,South,186,5.0,14.0,81,0.00,,,0.00,Wunderground v.1.15,2013-10-13 07:28:00,
2013-10-13 03:34:00,58.0,52.2,30.21,South,171,6.0,14.0,81,0.00,,,0.00,Wunderground v.1.15,2013-10-13 07:34:00,
2013-10-13 03:40:00,57.9,52.4,30.21,SSE,159,5.0,14.0,82,0.00,,,0.00,Wunderground v.1.15,2013-10-13 07:40:00,
2013-10-13 03:46:00,57.8,52.3,30.21,SE,146,5.0,14.0,82,0.00,,,0.00,Wunderground v.1.15,2013-10-13 07:46:00,
2013-10-13 03:52:00,57.6,52.1,30.21,South,173,4.0,14.0,82,0.00,,,0.00,Wunderground v.1.15,2013-10-13 07:52:00,
2013-10-13 03:58:00,57.4,52.3,30.21,SSE,155,4.0,14.0,83,0.00,,,0.00,Wunderground v.1.15,2013-10-13 07:58:00,
2013-10-13 04:04:00,57.1,52.0,30.21,SSE,165,4.0,14.0,83,0.00,,,0.00,Wunderground v.1.15,2013-10-13 08:04:00,
2013-10-13 04:10:00,56.9,52.1,30.22,SE,130,4.0,14.0,84,0.00,,,0.00,Wunderground v.1.15,2013-10-13 08:10:00,
2013-10-13 04:16:00,56.8,52.0,30.22,SSE,157,5.0,14.0,84,0.00,,,0.00,Wunderground v.1.15,2013-10-13 08:16:00,
2013-10-13 04:23:00,56.7,52.2,30.22,SSE,159,4.0,14.0,85,0.00,,,0.00,Wunderground v.1.15,2013-10-13 08:23:00,
2013-10-13 04:29:00,56.5,52.0,30.23,SE,130,3.0,14.0,85,0.00,,,0.00,Wunderground v.1.15,2013-10-13 08:29:00,
2013-10-13 04:35:00,56.3,52.2,30.23,SE,132,3.0,14.0,86,0.00,,,0.00,Wunderground v.1.15,2013-10-13 08:35:00,
2013-10-13 04:41:00,56.2,52.1,30.23,SE,140,4.0,14.0,86,0.00,,,0.00,Wunderground v.1.15,2013-10-13 08:41:00,
2013-10-13 04:47:00,56.0,51.9,30.23,SE,132,3.0,14.0,86,0.00,,,0.00,Wunderground v.1.15,2013-10-13 08:47:00,
2013-10-13 04:53:00,56.1,52.3,30.23,ESE,117,3.0,5.0,87,0.00,,,0.00,Wunderground v.1.15,2013-10-13 08:53:00,
2013-10-13 04:59:00,56.1,52.3,30.23,ESE,123,4.0,14.0,87,0.00,,,0.00,Wunderground v.1.15,2013-10-13 08:59:00,
2013-10-13 05:05:00,56.2,52.4,30.23,SE,137,4.0,14.0,87,0.00,,,0.00,Wunderground v.1.15,2013-10-13 09:05:00,
2013-10-13 05:11:00,56.3,52.5,30.23,SSE,155,4.0,4.0,87,0.00,,,0.00,Wunderground v.1.15,2013-10-13 09:11:00,
2013-10-13 05:17:00,56.4,52.6,30.24,SSE,155,3.0,14.0,87,0.00,,,0.00,Wunderground v.1.15,2013-10-13 09:17:00,
2013-10-13 05:22:00,56.4,52.6,30.24,SE,134,3.0,14.0,87,0.00,,,0.00,Wunderground v.1.15,2013-10-13 09:22:00,
2013-10-13 05:28:00,56.5,53.0,30.24,SE,142,3.0,14.0,88,0.00,,,0.00,Wunderground v.1.15,2013-10-13 09:28:00,
2013-10-13 05:34:00,56.5,52.7,30.24,SE,140,2.0,14.0,87,0.00,,,0.00,Wunderground v.1.15,2013-10-13 09:34:00,
2013-10-13 05:40:00,56.4,52.9,30.23,SE,126,3.0,14.0,88,0.00,,,0.00,Wunderground v.1.15,2013-10-13 09:40:00,
2013-10-13 05:46:00,56.4,52.9,30.23,SE,129,4.0,14.0,88,0.00,,,0.00,Wunderground v.1.15,2013-10-13 09:46:00,
2013-10-13 05:52:00,56.3,52.8,30.23,SE,132,3.0,7.0,88,0.00,,,0.00,Wunderground v.1.15,2013-10-13 09:52:00,
2013-10-13 05:58:00,56.3,52.8,30.23,ESE,120,4.0,14.0,88,0.00,,,0.00,Wunderground v.1.15,2013-10-13 09:58:00,
2013-10-13 06:04:00,56.2,52.7,30.24,South,182,3.0,5.0,88,0.00,,,0.00,Wunderground v.1.15,2013-10-13 10:04:00,
2013-10-13 06:10:00,56.1,52.6,30.24,SE,128,3.0,3.0,88,0.00,,,0.00,Wunderground v.1.15,2013-10-13 10:10:00,
2013-10-13 06:16:00,55.9,52.7,30.24,SE,135,2.0,3.0,89,0.00,,,0.00,Wunderground v.1.15,2013-10-13 10:16:00,
2013-10-13 06:22:00,55.7,52.5,30.24,South,170,2.0,4.0,89,0.00,,,0.00,Wunderground v.1.15,2013-10-13 10:22:00,
2013-10-13 06:28:00,55.6,52.4,30.24,SSE,156,3.0,4.0,89,0.00,,,0.00,Wunderground v.1.15,2013-10-13 10:28:00,
2013-10-13 06:34:00,55.4,52.2,30.24,SE,138,2.0,3.0,89,0.00,,,0.00,Wunderground v.1.15,2013-10-13 10:34:00,
2013-10-13 06:40:00,55.2,52.0,30.24,SE,142,1.0,1.0,89,0.00,,,0.00,Wunderground v.1.15,2013-10-13 10:40:00,
2013-10-13 06:46:00,55.0,52.1,30.24,SE,129,1.0,1.0,90,0.00,,,0.00,Wunderground v.1.15,2013-10-13 10:46:00,
2013-10-13 06:52:00,54.5,51.6,30.24,SE,129,0.0,0.0,90,0.00,,,0.00,Wunderground v.1.15,2013-10-13 10:52:00,
2013-10-13 06:58:00,54.0,51.4,30.24,SE,129,0.0,0.0,91,0.00,,,0.00,Wunderground v.1.15,2013-10-13 10:58:00,
2013-10-13 07:04:00,53.7,51.4,30.24,SE,129,0.0,10.0,92,0.00,,,0.00,Wunderground v.1.15,2013-10-13 11:04:00,
2013-10-13 07:10:00,53.6,51.6,30.25,SE,129,1.0,10.0,93,0.00,,,0.00,Wunderground v.1.15,2013-10-13 11:10:00,
2013-10-13 07:16:00,53.6,51.6,30.25,SSE,149,1.0,10.0,93,0.00,,,0.00,Wunderground v.1.15,2013-10-13 11:16:00,
2013-10-13 07:22:00,53.9,51.9,30.25,SSE,155,1.0,10.0,93,0.00,,,0.00,Wunderground v.1.15,2013-10-13 11:22:00,
2013-10-13 07:28:00,54.4,52.4,30.25,SE,138,2.0,10.0,93,0.00,,,0.00,Wunderground v.1.15,2013-10-13 11:28:00,
2013-10-13 07:34:00,54.9,52.6,30.25,SSE,160,2.0,10.0,92,0.00,,,0.00,Wunderground v.1.15,2013-10-13 11:34:00,
2013-10-13 07:40:00,55.0,52.4,30.25,SSE,161,1.0,1.0,91,0.00,,,0.00,Wunderground v.1.15,2013-10-13 11:40:00,
2013-10-13 07:46:00,55.5,52.9,30.25,SE,144,2.0,3.0,91,0.00,,,0.00,Wunderground v.1.15,2013-10-13 11:46:00,
2013-10-13 07:52:00,55.9,53.0,30.25,SSE,147,2.0,3.0,90,0.00,,,0.00,Wunderground v.1.15,2013-10-13 11:52:00,
2013-10-13 07:58:00,56.5,53.3,30.25,SE,142,2.0,3.0,89,0.00,,,0.00,Wunderground v.1.15,2013-10-13 11:58:00,
2013-10-13 08:04:00,56.9,53.4,30.25,SE,143,3.0,5.0,88,0.00,,,0.00,Wunderground v.1.15,2013-10-13 12:04:00,
2013-10-13 08:10:00,57.5,53.7,30.25,SE,144,4.0,4.0,87,0.00,,,0.00,Wunderground v.1.15,2013-10-13 12:10:00,
2013-10-13 08:16:00,58.1,53.9,30.25,SSE,154,4.0,6.0,86,0.00,,,0.00,Wunderground v.1.15,2013-10-13 12:16:00,
2013-10-13 08:22:00,58.6,54.1,30.25,ESE,115,4.0,4.0,85,0.00,,,0.00,Wunderground v.1.15,2013-10-13 12:22:00,
2013-10-13 08:28:00,59.0,54.5,30.26,SSE,153,4.0,5.0,85,0.00,,,0.00,Wunderground v.1.15,2013-10-13 12:28:00,
2013-10-13 08:34:00,59.7,54.9,30.26,SSE,152,4.0,5.0,84,0.00,,,0.00,Wunderground v.1.15,2013-10-13 12:34:00,
2013-10-13 08:40:00,60.2,55.0,30.26,SSE,150,4.0,6.0,83,0.00,,,0.00,Wunderground v.1.15,2013-10-13 12:40:00,
2013-10-13 08:46:00,60.4,54.5,30.26,SSE,148,5.0,7.0,81,0.00,,,0.00,Wunderground v.1.15,2013-10-13 12:46:00,
2013-10-13 08:52:00,60.7,54.8,30.26,SE,128,5.0,6.0,81,0.00,,,0.00,Wunderground v.1.15,2013-10-13 12:52:00,
2013-10-13 08:58:00,60.7,54.8,30.26,SSE,157,5.0,7.0,81,0.00,,,0.00,Wunderground v.1.15,2013-10-13 12:58:00,
2013-10-13 09:04:00,60.5,54.6,30.26,SSE,148,5.0,6.0,81,0.00,,,0.00,Wunderground v.1.15,2013-10-13 13:04:00,
2013-10-13 09:10:00,60.3,54.8,30.26,SSE,159,5.0,5.0,82,0.00,,,0.00,Wunderground v.1.15,2013-10-13 13:10:00,
2013-10-13 09:16:00,60.2,54.7,30.26,SSE,161,4.0,5.0,82,0.00,,,0.00,Wunderground v.1.15,2013-10-13 13:16:00,
2013-10-13 09:22:00,60.4,54.9,30.27,SE,144,4.0,7.0,82,0.00,,,0.00,Wunderground v.1.15,2013-10-13 13:22:00,
2013-10-13 09:28:00,61.1,55.2,30.27,SSE,154,5.0,7.0,81,0.00,,,0.00,Wunderground v.1.15,2013-10-13 13:28:00,
2013-10-13 09:34:00,61.1,54.9,30.27,South,176,4.0,5.0,80,0.00,,,0.00,Wunderground v.1.15,2013-10-13 13:34:00,
2013-10-13 09:40:00,61.4,55.2,30.26,SSE,153,5.0,7.0,80,0.00,,,0.00,Wunderground v.1.15,2013-10-13 13:40:00,
2013-10-13 09:46:00,62.0,55.8,30.26,South,182,6.0,7.0,80,0.00,,,0.00,Wunderground v.1.15,2013-10-13 13:46:00,
2013-10-13 09:52:00,62.9,56.3,30.26,South,175,4.0,5.0,79,0.00,,,0.00,Wunderground v.1.15,2013-10-13 13:52:00,
2013-10-13 09:58:00,62.8,55.5,30.26,SSE,153,5.0,9.0,77,0.00,,,0.00,Wunderground v.1.15,2013-10-13 13:58:00,
2013-10-13 10:04:00,62.5,55.5,30.26,SSW,198,6.0,6.0,78,0.00,,,0.00,Wunderground v.1.15,2013-10-13 14:04:00,
2013-10-13 10:10:00,62.6,55.6,30.27,South,184,6.0,6.0,78,0.00,,,0.00,Wunderground v.1.15,2013-10-13 14:10:00,
2013-10-13 10:16:00,62.8,55.5,30.27,SSE,161,6.0,10.0,77,0.00,,,0.00,Wunderground v.1.15,2013-10-13 14:16:00,
2013-10-13 10:22:00,62.8,55.5,30.27,SSE,150,7.0,7.0,77,0.00,,,0.00,Wunderground v.1.15,2013-10-13 14:22:00,
2013-10-13 10:28:00,62.9,55.9,30.27,SSE,155,6.0,7.0,78,0.00,,,0.00,Wunderground v.1.15,2013-10-13 14:28:00,
2013-10-13 10:34:00,63.6,55.9,30.27,SE,130,6.0,6.0,76,0.00,,,0.00,Wunderground v.1.15,2013-10-13 14:34:00,
2013-10-13 10:40:00,63.7,56.0,30.27,SSE,147,7.0,7.0,76,0.00,,,0.00,Wunderground v.1.15,2013-10-13 14:40:00,
2013-10-13 10:46:00,63.9,56.2,30.27,SSW,201,6.0,7.0,76,0.00,,,0.00,Wunderground v.1.15,2013-10-13 14:46:00,
2013-10-13 10:52:00,64.0,56.3,30.27,South,173,5.0,8.0,76,0.00,,,0.00,Wunderground v.1.15,2013-10-13 14:52:00,
2013-10-13 10:58:00,64.1,55.6,30.27,SE,144,6.0,9.0,74,0.00,,,0.00,Wunderground v.1.15,2013-10-13 14:58:00,
2013-10-13 11:04:00,64.6,56.5,30.27,SE,142,6.0,9.0,75,0.00,,,0.00,Wunderground v.1.15,2013-10-13 15:04:00,
2013-10-13 11:10:00,65.1,56.2,30.26,SSE,153,7.0,7.0,73,0.00,,,0.00,Wunderground v.1.15,2013-10-13 15:10:00,
2013-10-13 11:16:00,65.4,56.1,30.26,SE,144,7.0,7.0,72,0.00,,,0.00,Wunderground v.1.15,2013-10-13 15:16:00,
2013-10-13 11:22:00,65.6,56.7,30.27,SE,139,6.0,9.0,73,0.00,,,0.00,Wunderground v.1.15,2013-10-13 15:22:00,
2013-10-13 11:28:00,66.3,57.0,30.26,South,178,7.0,9.0,72,0.00,,,0.00,Wunderground v.1.15,2013-10-13 15:28:00,
2013-10-13 11:34:00,66.6,57.3,30.26,South,190,6.0,7.0,72,0.00,,,0.00,Wunderground v.1.15,2013-10-13 15:34:00,
2013-10-13 11:40:00,66.8,56.7,30.26,SE,135,5.0,8.0,70,0.00,,,0.00,Wunderground v.1.15,2013-10-13 15:40:00,
2013-10-13 11:46:00,67.2,56.7,30.26,SE,136,6.0,8.0,69,0.00,,,0.00,Wunderground v.1.15,2013-10-13 15:46:00,
2013-10-13 11:52:00,67.3,58.0,30.26,SSE,152,6.0,10.0,72,0.00,,,0.00,Wunderground v.1.15,2013-10-13 15:52:00,
2013-10-13 11:58:00,68.1,57.1,30.26,SE,128,6.0,10.0,68,0.00,,,0.00,Wunderground v.1.15,2013-10-13 15:58:00,
2013-10-13 12:04:00,68.3,57.7,30.26,South,183,6.0,9.0,69,0.00,,,0.00,Wunderground v.1.15,2013-10-13 16:04:00,
2013-10-13 12:10:00,68.7,58.1,30.26,SW,216,5.0,7.0,69,0.00,,,0.00,Wunderground v.1.15,2013-10-13 16:10:00,
2013-10-13 12:16:00,69.0,58.0,30.25,SW,224,5.0,7.0,68,0.00,,,0.00,Wunderground v.1.15,2013-10-13 16:16:00,
2013-10-13 12:22:00,69.3,58.7,30.25,SSE,163,4.0,4.0,69,0.00,,,0.00,Wunderground v.1.15,2013-10-13 16:22:00,
2013-10-13 12:28:00,69.4,58.4,30.25,SE,139,5.0,8.0,68,0.00,,,0.00,Wunderground v.1.15,2013-10-13 16:28:00,
2013-10-13 12:34:00,69.5,58.1,30.25,SSE,149,6.0,6.0,67,0.00,,,0.00,Wunderground v.1.15,2013-10-13 16:34:00,
2013-10-13 12:40:00,69.6,58.2,30.25,SSE,150,6.0,6.0,67,0.00,,,0.00,Wunderground v.1.15,2013-10-13 16:40:00,
2013-10-13 12:46:00,69.7,58.3,30.24,SSE,148,6.0,9.0,67,0.00,,,0.00,Wunderground v.1.15,2013-10-13 16:46:00,
2013-10-13 12:52:00,70.1,59.0,30.24,SSE,165,7.0,7.0,68,0.00,,,0.00,Wunderground v.1.15,2013-10-13 16:52:00,
2013-10-13 12:58:00,70.2,59.1,30.24,SSW,197,5.0,7.0,68,0.00,,,0.00,Wunderground v.1.15,2013-10-13 16:58:00,
2013-10-13 13:04:00,70.4,59.3,30.24,SSW,208,4.0,5.0,68,0.00,,,0.00,Wunderground v.1.15,2013-10-13 17:04:00,
2013-10-13 13:10:00,69.9,60.1,30.24,SE,126,5.0,5.0,71,0.00,,,0.00,Wunderground v.1.15,2013-10-13 17:10:00,
2013-10-13 13:16:00,70.0,59.0,30.24,ESE,117,5.0,7.0,68,0.00,,,0.00,Wunderground v.1.15,2013-10-13 17:16:00,
2013-10-13 13:22:00,69.9,59.7,30.24,SSE,168,6.0,6.0,70,0.00,,,0.00,Wunderground v.1.15,2013-10-13 17:22:00,
2013-10-13 13:28:00,70.1,59.5,30.24,SE,131,6.0,7.0,69,0.00,,,0.00,Wunderground v.1.15,2013-10-13 17:28:00,
2013-10-13 13:34:00,70.6,59.5,30.24,SE,130,5.0,8.0,68,0.00,,,0.00,Wunderground v.1.15,2013-10-13 17:34:00,
2013-10-13 13:40:00,70.4,60.1,30.24,ESE,108,6.0,6.0,70,0.00,,,0.00,Wunderground v.1.15,2013-10-13 17:40:00,
2013-10-13 13:46:00,70.3,59.2,30.24,SE,126,6.0,11.0,68,0.00,,,0.00,Wunderground v.1.15,2013-10-13 17:46:00,
2013-10-13 13:52:00,69.8,58.8,30.24,SSE,148,7.0,7.0,68,0.00,,,0.00,Wunderground v.1.15,2013-10-13 17:52:00,
2013-10-13 13:58:00,69.8,59.6,30.23,South,186,5.0,7.0,70,0.00,,,0.00,Wunderground v.1.15,2013-10-13 17:58:00,
2013-10-13 14:04:00,69.6,60.2,30.23,SSE,160,4.0,7.0,72,0.00,,,0.00,Wunderground v.1.15,2013-10-13 18:04:00,
2013-10-13 14:10:00,69.4,59.6,30.23,South,188,4.0,4.0,71,0.00,,,0.00,Wunderground v.1.15,2013-10-13 18:10:00,
2013-10-13 14:16:00,68.8,59.4,30.23,SSW,192,5.0,8.0,72,0.00,,,0.00,Wunderground v.1.15,2013-10-13 18:16:00,
2013-10-13 14:22:00,68.7,60.1,30.23,South,170,4.0,5.0,74,0.00,,,0.00,Wunderground v.1.15,2013-10-13 18:22:00,
2013-10-13 14:28:00,68.4,59.8,30.23,South,182,4.0,7.0,74,0.00,,,0.00,Wunderground v.1.15,2013-10-13 18:28:00,
2013-10-13 14:34:00,67.9,59.7,30.23,SSW,198,5.0,7.0,75,0.00,,,0.00,Wunderground v.1.15,2013-10-13 18:34:00,
2013-10-13 14:40:00,67.8,60.7,30.23,South,190,4.0,6.0,78,0.00,,,0.00,Wunderground v.1.15,2013-10-13 18:40:00,
2013-10-13 14:46:00,67.7,60.2,30.23,SSW,192,4.0,6.0,77,0.00,,,0.00,Wunderground v.1.15,2013-10-13 18:46:00,
2013-10-13 14:52:00,67.8,60.7,30.23,SSW,206,4.0,5.0,78,0.00,,,0.00,Wunderground v.1.15,2013-10-13 18:52:00,
2013-10-13 14:58:00,67.7,61.0,30.23,SE,138,4.0,5.0,79,0.00,,,0.00,Wunderground v.1.15,2013-10-13 18:58:00,
2013-10-13 15:04:00,67.5,61.1,30.23,SSW,205,4.0,8.0,80,0.00,,,0.00,Wunderground v.1.15,2013-10-13 19:04:00,
2013-10-13 15:10:00,66.8,60.8,30.23,SW,231,5.0,5.0,81,0.00,,,0.00,Wunderground v.1.15,2013-10-13 19:10:00,
2013-10-13 15:16:00,66.7,60.7,30.23,SSW,194,4.0,5.0,81,0.00,,,0.00,Wunderground v.1.15,2013-10-13 19:16:00,
2013-10-13 15:22:00,66.9,60.5,30.23,South,180,4.0,4.0,80,0.00,,,0.00,Wunderground v.1.15,2013-10-13 19:22:00,
2013-10-13 15:28:00,67.2,60.8,30.22,South,173,3.0,4.0,80,0.00,,,0.00,Wunderground v.1.15,2013-10-13 19:28:00,
2013-10-13 15:34:00,67.4,60.7,30.22,SSW,199,3.0,4.0,79,0.00,,,0.00,Wunderground v.1.15,2013-10-13 19:34:00,
2013-10-13 15:40:00,67.4,60.3,30.22,SSW,209,3.0,3.0,78,0.00,,,0.00,Wunderground v.1.15,2013-10-13 19:40:00,
2013-10-13 15:46:00,67.3,60.9,30.22,SSW,210,3.0,4.0,80,0.00,,,0.00,Wunderground v.1.15,2013-10-13 19:46:00,
2013-10-13 15:52:00,67.5,60.8,30.22,South,182,3.0,4.0,79,0.00,,,0.00,Wunderground v.1.15,2013-10-13 19:52:00,
2013-10-13 15:58:00,67.5,60.4,30.22,SSW,202,3.0,7.0,78,0.00,,,0.00,Wunderground v.1.15,2013-10-13 19:58:00,
2013-10-13 16:04:00,67.5,60.4,30.22,SSW,210,3.0,5.0,78,0.00,,,0.00,Wunderground v.1.15,2013-10-13 20:04:00,
2013-10-13 16:10:00,67.7,60.6,30.22,SW,232,3.0,4.0,78,0.00,,,0.00,Wunderground v.1.15,2013-10-13 20:10:00,
2013-10-13 16:16:00,67.7,60.2,30.22,SSW,192,4.0,5.0,77,0.00,,,0.00,Wunderground v.1.15,2013-10-13 20:16:00,
2013-10-13 16:22:00,67.7,60.6,30.22,SW,219,4.0,4.0,78,0.00,,,0.00,Wunderground v.1.15,2013-10-13 20:22:00,
2013-10-13 16:28:00,67.6,60.5,30.22,SSW,207,3.0,4.0,78,0.00,,,0.00,Wunderground v.1.15,2013-10-13 20:28:00,
2013-10-13 16:34:00,67.5,60.8,30.22,SSW,207,3.0,4.0,79,0.00,,,0.00,Wunderground v.1.15,2013-10-13 20:34:00,
2013-10-13 16:40:00,67.3,61.3,30.22,SSW,205,3.0,4.0,81,0.00,,,0.00,Wunderground v.1.15,2013-10-13 20:40:00,
2013-10-13 16:46:00,66.8,61.5,30.22,SW,222,2.0,4.0,83,0.00,,,0.00,Wunderground v.1.15,2013-10-13 20:46:00,
2013-10-13 16:52:00,66.1,61.8,30.23,WSW,250,2.0,4.0,86,0.00,,,0.00,Wunderground v.1.15,2013-10-13 20:52:00,
2013-10-13 16:58:00,65.8,61.8,30.22,West,264,2.0,4.0,87,0.00,,,0.00,Wunderground v.1.15,2013-10-13 20:58:00,
2013-10-13 17:04:00,65.6,61.9,30.22,West,270,2.0,4.0,88,0.00,,,0.00,Wunderground v.1.15,2013-10-13 21:04:00,
2013-10-13 17:10:00,65.3,61.7,30.22,West,267,2.0,4.0,88,0.00,,,0.00,Wunderground v.1.15,2013-10-13 21:10:00,
2013-10-13 17:16:00,65.2,61.9,30.23,WSW,257,2.0,4.0,89,0.00,,,0.00,Wunderground v.1.15,2013-10-13 21:16:00,
2013-10-13 17:22:00,65.0,61.7,30.23,West,265,1.0,4.0,89,0.00,,,0.00,Wunderground v.1.15,2013-10-13 21:22:00,
2013-10-13 17:28:00,64.8,61.8,30.23,WSW,255,1.0,4.0,90,0.00,,,0.00,Wunderground v.1.15,2013-10-13 21:28:00,
2013-10-13 17:34:00,64.6,61.6,30.23,West,269,1.0,4.0,90,0.00,,,0.00,Wunderground v.1.15,2013-10-13 21:34:00,
2013-10-13 17:40:00,64.4,61.7,30.22,SW,228,1.0,1.0,91,0.00,,,0.00,Wunderground v.1.15,2013-10-13 21:40:00,
2013-10-13 17:46:00,64.3,61.6,30.23,SW,228,0.0,4.0,91,0.00,,,0.00,Wunderground v.1.15,2013-10-13 21:46:00,
2013-10-13 17:52:00,64.3,61.6,30.22,SSW,204,1.0,4.0,91,0.00,,,0.00,Wunderground v.1.15,2013-10-13 21:52:00,
2013-10-13 17:58:00,64.3,61.6,30.23,SSW,204,1.0,4.0,91,0.00,,,0.00,Wunderground v.1.15,2013-10-13 21:58:00,
2013-10-13 18:04:00,64.2,61.5,30.23,SSW,204,1.0,4.0,91,0.00,,,0.00,Wunderground v.1.15,2013-10-13 22:04:00,
2013-10-13 18:10:00,64.1,61.4,30.23,SSW,194,2.0,2.0,91,0.00,,,0.00,Wunderground v.1.15,2013-10-13 22:10:00,
2013-10-13 18:16:00,64.0,61.3,30.22,SSE,165,2.0,4.0,91,0.00,,,0.00,Wunderground v.1.15,2013-10-13 22:16:00,
2013-10-13 18:22:00,64.0,61.3,30.22,SSE,165,2.0,4.0,91,0.00,,,0.00,Wunderground v.1.15,2013-10-13 22:22:00,
2013-10-13 18:28:00,64.0,61.3,30.22,SSE,165,1.0,4.0,91,0.00,,,0.00,Wunderground v.1.15,2013-10-13 22:28:00,
2013-10-13 18:34:00,63.9,61.5,30.22,SSE,167,1.0,4.0,92,0.00,,,0.00,Wunderground v.1.15,2013-10-13 22:34:00,
2013-10-13 18:40:00,63.8,61.4,30.22,South,171,1.0,1.0,92,0.00,,,0.00,Wunderground v.1.15,2013-10-13 22:40:00,
2013-10-13 18:46:00,63.7,61.3,30.22,South,171,1.0,4.0,92,0.00,,,0.00,Wunderground v.1.15,2013-10-13 22:46:00,
2013-10-13 18:52:00,63.5,61.1,30.23,South,171,0.0,4.0,92,0.00,,,0.00,Wunderground v.1.15,2013-10-13 22:52:00,
2013-10-13 18:58:00,63.4,61.3,30.23,South,171,0.0,4.0,93,0.00,,,0.00,Wunderground v.1.15,2013-10-13 22:58:00,
2013-10-13 19:04:00,63.4,61.3,30.23,South,171,0.0,4.0,93,0.00,,,0.00,Wunderground v.1.15,2013-10-13 23:04:00,
2013-10-13 19:10:00,63.2,61.1,30.23,South,171,0.0,4.0,93,0.00,,,0.00,Wunderground v.1.15,2013-10-13 23:10:00,
2013-10-13 19:16:00,63.1,61.0,30.23,South,171,0.0,4.0,93,0.00,,,0.00,Wunderground v.1.15,2013-10-13 23:16:00,
2013-10-13 19:22:00,62.9,61.1,30.23,South,171,0.0,4.0,94,0.00,,,0.00,Wunderground v.1.15,2013-10-13 23:22:00,
2013-10-13 19:28:00,62.7,60.9,30.23,South,171,0.0,4.0,94,0.00,,,0.00,Wunderground v.1.15,2013-10-13 23:28:00,
2013-10-13 19:34:00,62.7,60.9,30.23,South,171,0.0,4.0,94,0.00,,,0.00,Wunderground v.1.15,2013-10-13 23:34:00,
2013-10-13 19:40:00,62.6,61.1,30.23,South,171,0.0,4.0,95,0.00,,,0.00,Wunderground v.1.15,2013-10-13 23:40:00,
2013-10-13 19:46:00,62.5,61.0,30.23,South,171,0.0,4.0,95,0.00,,,0.00,Wunderground v.1.15,2013-10-13 23:46:00,
2013-10-13 19:52:00,62.5,61.0,30.23,South,171,0.0,4.0,95,0.00,,,0.00,Wunderground v.1.15,2013-10-13 23:52:00,
2013-10-13 19:58:00,62.5,61.0,30.23,South,171,0.0,4.0,95,0.00,,,0.00,Wunderground v.1.15,2013-10-13 23:58:00,
2013-10-13 20:04:00,62.4,60.9,30.23,South,171,0.0,4.0,95,0.00,,,0.00,Wunderground v.1.15,2013-10-14 00:04:00,
2013-10-13 20:10:00,62.3,60.8,30.23,South,171,0.0,4.0,95,0.00,,,0.00,Wunderground v.1.15,2013-10-14 00:10:00,
2013-10-13 20:16:00,62.2,60.8,30.23,South,171,0.0,4.0,95,0.00,,,0.00,Wunderground v.1.15,2013-10-14 00:16:00,
2013-10-13 20:22:00,62.2,60.8,30.23,South,171,0.0,4.0,95,0.00,,,0.00,Wunderground v.1.15,2013-10-14 00:22:00,
2013-10-13 20:28:00,62.2,60.8,30.23,South,171,0.0,4.0,95,0.00,,,0.00,Wunderground v.1.15,2013-10-14 00:28:00,
2013-10-13 20:34:00,62.2,61.0,30.24,South,171,0.0,4.0,96,0.00,,,0.00,Wunderground v.1.15,2013-10-14 00:34:00,
2013-10-13 20:40:00,62.1,60.9,30.24,South,171,0.0,4.0,96,0.00,,,0.00,Wunderground v.1.15,2013-10-14 00:40:00,
2013-10-13 20:46:00,62.0,60.8,30.24,South,171,0.0,4.0,96,0.00,,,0.00,Wunderground v.1.15,2013-10-14 00:46:00,
2013-10-13 20:52:00,62.0,60.8,30.24,South,171,0.0,4.0,96,0.00,,,0.00,Wunderground v.1.15,2013-10-14 00:52:00,
2013-10-13 20:58:00,62.1,60.7,30.24,SSW,211,1.0,6.0,95,0.00,,,0.00,Wunderground v.1.15,2013-10-14 00:58:00,
2013-10-13 21:04:00,62.2,60.5,30.24,SSW,209,3.0,5.0,94,0.00,,,0.00,Wunderground v.1.15,2013-10-14 01:04:00,
2013-10-13 21:10:00,62.6,59.9,30.24,SSW,194,3.0,4.0,91,0.00,,,0.00,Wunderground v.1.15,2013-10-14 01:10:00,
2013-10-13 21:16:00,62.9,59.3,30.24,SSW,194,4.0,5.0,88,0.00,,,0.00,Wunderground v.1.15,2013-10-14 01:16:00,
2013-10-13 21:22:00,63.1,58.5,30.24,SSW,193,3.0,4.0,85,0.00,,,0.00,Wunderground v.1.15,2013-10-14 01:22:00,
2013-10-13 21:28:00,63.1,58.5,30.25,SSW,198,3.0,6.0,85,0.00,,,0.00,Wunderground v.1.15,2013-10-14 01:28:00,
2013-10-13 21:34:00,63.1,58.2,30.25,South,181,4.0,7.0,84,0.00,,,0.00,Wunderground v.1.15,2013-10-14 01:34:00,
2013-10-13 21:40:00,63.1,59.2,30.25,SSW,204,5.0,9.0,87,0.00,,,0.00,Wunderground v.1.15,2013-10-14 01:40:00,
2013-10-13 21:46:00,62.7,59.7,30.25,SSW,202,6.0,9.0,90,0.57,,,0.03,Wunderground v.1.15,2013-10-14 01:46:00,
2013-10-13 21:52:00,62.2,59.8,30.25,SW,216,5.0,5.0,92,0.18,,,0.04,Wunderground v.1.15,2013-10-14 01:52:00,
2013-10-13 21:58:00,61.9,59.9,30.25,SSW,203,4.0,5.0,93,0.10,,,0.05,Wunderground v.1.15,2013-10-14 01:58:00,
2013-10-13 22:04:00,61.8,59.8,30.25,SSW,194,4.0,6.0,93,0.09,,,0.06,Wunderground v.1.15,2013-10-14 02:04:00,
2013-10-13 22:10:00,61.6,59.9,30.25,SSW,202,3.0,3.0,94,0.10,,,0.07,Wunderground v.1.15,2013-10-14 02:10:00,
2013-10-13 22:16:00,61.5,59.8,30.25,SSW,213,2.0,4.0,94,0.05,,,0.07,Wunderground v.1.15,2013-10-14 02:16:00,
2013-10-13 22:22:00,61.3,59.6,30.26,SSW,207,2.0,4.0,94,0.00,,,0.07,Wunderground v.1.15,2013-10-14 02:22:00,
2013-10-13 22:28:00,61.2,59.8,30.25,SW,216,2.0,4.0,95,0.12,,,0.09,Wunderground v.1.15,2013-10-14 02:28:00,
2013-10-13 22:34:00,61.1,59.7,30.25,SSW,205,2.0,4.0,95,0.18,,,0.11,Wunderground v.1.15,2013-10-14 02:34:00,
2013-10-13 22:40:00,60.9,59.5,30.25,SSW,192,2.0,5.0,95,0.12,,,0.12,Wunderground v.1.15,2013-10-14 02:40:00,
2013-10-13 22:46:00,60.9,59.5,30.25,SSW,201,3.0,5.0,95,0.06,,,0.12,Wunderground v.1.15,2013-10-14 02:46:00,
2013-10-13 22:52:00,60.8,59.4,30.25,South,180,3.0,4.0,95,0.04,,,0.12,Wunderground v.1.15,2013-10-14 02:52:00,
2013-10-13 22:58:00,60.7,59.3,30.25,SSW,207,2.0,4.0,95,0.00,,,0.12,Wunderground v.1.15,2013-10-14 02:58:00,
2013-10-13 23:04:00,60.6,59.5,30.25,SSW,196,2.0,4.0,96,0.00,,,0.12,Wunderground v.1.15,2013-10-14 03:04:00,
2013-10-13 23:10:00,60.6,59.5,30.25,SSW,192,2.0,4.0,96,0.00,,,0.13,Wunderground v.1.15,2013-10-14 03:10:00,
2013-10-13 23:16:00,60.5,59.4,30.25,South,187,1.0,4.0,96,0.18,,,0.14,Wunderground v.1.15,2013-10-14 03:16:00,
2013-10-13 23:22:00,60.5,59.4,30.25,South,179,1.0,4.0,96,0.10,,,0.16,Wunderground v.1.15,2013-10-14 03:22:00,
2013-10-13 23:28:00,60.5,59.4,30.25,SSW,192,2.0,4.0,96,0.12,,,0.17,Wunderground v.1.15,2013-10-14 03:28:00,
2013-10-13 23:34:00,60.5,59.4,30.25,SSE,163,2.0,4.0,96,0.20,,,0.19,Wunderground v.1.15,2013-10-14 03:34:00,
2013-10-13 23:40:00,60.5,59.4,30.25,SSE,156,2.0,4.0,96,0.08,,,0.20,Wunderground v.1.15,2013-10-14 03:40:00,
2013-10-13 23:46:00,60.4,59.3,30.25,SSE,160,2.0,4.0,96,0.13,,,0.21,Wunderground v.1.15,2013-10-14 03:46:00,
2013-10-13 23:52:00,60.4,59.3,30.24,SSW,205,2.0,3.0,96,0.06,,,0.21,Wunderground v.1.15,2013-10-14 03:52:00,
2013-10-13 23:58:00,60.4,59.3,30.25,South,180,2.0,4.0,96,0.04,,,0.21,Wunderground v.1.15,2013-10-14 03:58:00,